KJ5FA-10 Weather Reports


time (UTC)temp
C
wind
direction
speed
KPH
gust
KPH
rain 1hr
cm
rain 24hr
cm
rain mn
cm
humidity
%
barometer
mb
20260510095434 17 131 1.6 4.8 0.00 0.00 0.00 97 1015.9
20260510092435 17 138 3.2 3.2 0.00 0.00 0.00 97 1015.9
20260510090933 17 50 3.2 9.7 0.00 0.00 0.00 97 1015.5
20260510085434 17 79 1.6 3.2 0.00 0.00 0.00 96 1015.3
20260510083934 17 288 1.6 4.8 0.00 0.00 0.00 96 1015.0
20260510082434 17 43 6.4 8.0 0.00 0.00 0.00 96 1014.6
20260510080934 17 175 1.6 3.2 0.00 0.00 0.00 96 1014.7
20260510075433 17 0 0.0 1.6 0.00 0.00 0.00 95 1014.4
20260510073933 17 52 1.6 1.6 0.00 0.00 0.00 95 1014.4
20260510072434 17 36 1.6 1.6 0.00 0.00 0.00 95 1014.4
20260510071234 17 0 0.0 0.0 0.00 0.00 0.00 94 1014.4
20260510065433 17 56 1.6 1.6 0.00 0.00 0.00 94 1014.6
20260510063932 18 70 1.6 1.6 0.00 0.00 0.00 93 1014.4
20260510062432 18 101 3.2 3.2 0.00 0.00 0.00 92 1014.9
20260510060932 18 43 1.6 1.6 0.00 0.00 0.00 92 1014.7
20260510053932 18 0 0.0 0.0 0.00 0.00 0.00 90 1014.5
20260510050933 19 0 0.0 0.0 0.00 0.00 0.00 89 1014.2
20260510040932 20 0 0.0 0.0 0.00 0.00 0.00 82 1013.9
20260510035432 21 0 0.0 1.6 0.00 0.00 0.00 80 1013.7
20260510033932 21 0 0.0 0.0 0.00 0.00 0.00 78 1013.7
20260510032432 22 0 0.0 1.6 0.00 0.00 0.00 76 1013.8
20260510030932 22 0 0.0 1.6 0.00 0.00 0.00 74 1013.5
20260510025432 22 86 1.6 1.6 0.00 0.00 0.00 73 1013.2
20260510023932 22 98 1.6 1.6 0.00 0.00 0.00 71 1012.8
20260510022432 22 98 1.6 3.2 0.00 0.00 0.00 72 1012.8
20260510020932 22 83 1.6 1.6 0.00 0.00 0.00 72 1012.7
20260510015433 22 0 0.0 0.0 0.00 0.00 0.00 71 1012.4
20260510013932 23 0 0.0 1.6 0.00 0.00 0.00 68 1012.1
20260510012432 23 85 1.6 1.6 0.00 0.00 0.00 66 1012.0
20260510010932 24 0 0.0 0.0 0.00 0.00 0.00 66 1012.1
20260510005433 25 0 0.0 0.0 0.00 0.00 0.00 62 1011.5
20260510003932 25 0 0.0 0.0 0.00 0.00 0.00 61 1011.3
20260510002434 26 0 0.0 1.6 0.00 0.00 0.00 59 1011.2
20260510000932 26 0 0.0 0.0 0.00 0.00 0.00 59 1011.0
20260509235433 26 86 3.2 3.2 0.00 0.00 0.00 59 1010.9
20260509233933 26 86 3.2 3.2 0.00 0.00 0.00 57 1010.8
20260509232432 27 65 1.6 4.8 0.00 0.00 0.00 56 1010.7
20260509230932 27 0 0.0 1.6 0.00 0.00 0.00 57 1010.4
20260509225432 27 114 1.6 1.6 0.00 0.00 0.00 56 1010.7
20260509223933 28 219 1.6 3.2 0.00 0.00 0.00 50 1010.3
20260509222432 28 0 0.0 4.8 0.00 0.00 0.00 52 1010.1
20260509215433 30 226 4.8 4.8 0.00 0.00 0.00 48 1010.0
20260509213932 30 263 3.2 3.2 0.00 0.00 0.00 48 1010.0
20260509212432 30 0 0.0 1.6 0.00 0.00 0.00 45 1010.1
20260509210932 29 228 1.6 3.2 0.00 0.00 0.00 48 1010.4
20260509205432 29 129 1.6 3.2 0.00 0.00 0.00 47 1010.4
20260509203932 28 237 1.6 3.2 0.00 0.00 0.00 49 1010.6
20260509202432 28 0 0.0 1.6 0.00 0.00 0.00 48 1010.8
20260509200932 28 0 0.0 1.6 0.00 0.00 0.00 49 1011.0
20260509195432 27 0 0.0 1.6 0.00 0.00 0.00 51 1011.4
20260509193932 27 244 3.2 6.4 0.00 0.00 0.00 50 1011.3
20260509190933 28 69 1.6 3.2 0.00 0.00 0.00 49 1011.5
20260509185433 27 0 0.0 1.6 0.00 0.00 0.00 50 1011.5
20260509183932 27 123 1.6 1.6 0.00 0.00 0.00 52 1011.8
20260509182432 28 275 1.6 1.6 0.00 0.00 0.00 49 1011.6
20260509180932 28 224 3.2 6.4 0.00 0.00 0.00 49 1011.8
20260509175432 27 0 0.0 1.6 0.00 0.00 0.00 53 1011.9
20260509173932 27 192 1.6 3.2 0.00 0.00 0.00 51 1012.1
20260509172432 27 235 4.8 4.8 0.00 0.00 0.00 52 1012.3
20260509170932 26 89 3.2 3.2 0.00 0.00 0.00 54 1012.2
20260509165432 25 343 4.8 9.7 0.00 0.00 0.00 57 1012.2
20260509163932 25 348 6.4 9.7 0.00 0.00 0.00 60 1012.3
20260509162432 24 353 8.0 9.7 0.00 0.00 0.00 61 1012.3
20260509160932 23 12 4.8 4.8 0.00 0.00 0.00 63 1012.3
20260509155432 23 20 3.2 3.2 0.00 0.00 0.00 65 1012.2
20260509153932 22 43 4.8 6.4 0.00 0.00 0.00 68 1012.1
20260509152432 21 10 4.8 6.4 0.00 0.00 0.00 71 1012.4
20260509150932 21 57 3.2 4.8 0.00 0.00 0.00 72 1012.5
20260509145432 20 6 8.0 8.0 0.00 0.00 0.00 73 1012.4
20260509143932 20 171 3.2 4.8 0.00 0.00 0.00 77 1012.4
20260509142432 18 199 1.6 3.2 0.00 0.00 0.00 80 1012.5
20260509140932 18 165 3.2 4.8 0.00 0.00 0.00 84 1013.0
20260509135432 17 87 3.2 3.2 0.00 0.00 0.00 86 1013.0
20260509133932 16 109 1.6 3.2 0.00 0.00 0.00 89 1013.2
20260509132432 16 199 1.6 3.2 0.00 0.00 0.00 93 1012.9
20260509130932 15 49 1.6 3.2 0.00 0.00 0.00 97 1013.1
20260509125432 15 54 1.6 4.8 0.00 0.00 0.00 97 1013.1
20260509122432 13 83 1.6 3.2 0.00 0.00 0.00 97 1012.6
20260509120932 13 91 3.2 4.8 0.00 0.00 0.00 97 1012.9
20260509115432 13 360 1.6 3.2 0.00 0.00 0.00 97 1012.7
20260509113932 12 101 1.6 1.6 0.00 0.00 0.00 97 1012.2
20260509112432 12 65 1.6 3.2 0.00 0.00 0.00 97 1012.2
20260509110933 13 66 3.2 3.2 0.00 0.00 0.00 97 1012.0
20260509105432 12 192 1.6 4.8 0.00 0.00 0.00 97 1011.9
20260509103932 13 203 3.2 3.2 0.00 0.00 0.00 97 1011.3
20260509102432 13 80 3.2 4.8 0.00 0.00 0.00 97 1010.8
20260509100932 13 36 3.2 6.4 0.00 0.00 0.00 97 1010.8